Regional Weather Roundup
Issued by NWS Sterling, VA

Home | Current Version | Previous Version | Graphics & Text | Print | Product List | Glossary On
Versions: 1 2 3 4 5 6 7 8 9 10 11 12 13 14 15 16 17 18 19 20 21 22 23 24 25 26 27
000
ASUS41 KLWX 301910
RWRLWX

REGIONAL WEATHER ROUNDUP
NATIONAL WEATHER SERVICE BALTIMORE MD/WASHINGTON DC
300 PM EDT SAT APR 30 2016

Note: "FAIR" indicates few or no clouds below 12,000 feet
with no significant weather and/or obstructions to visibility.
 TC=TEMPERATURE CELSIUS

 * =Non NWS site. Station does not report precipitation (e.g. rain,
    snow, etc.), thunder, or fog.

DCZ001-MDZ009-015-VAZ040>042-051-053>054-302000-
WASHINGTON METRO

CITY           SKY/WX    TMP DP  RH WIND       PRES   REMARKS
WASHINGTON NAT CLOUDY    58  48  69 CALM      30.20F
DULLES         CLOUDY    55  47  74 SE7       30.20S
ANDREWS AFB    CLOUDY    56  48  75 E9        30.18F
FT BELVOIR     CLOUDY    57  46  67 SE6       30.20S
QUANTICO       CLOUDY    58  48  69 CALM      30.21S
COLLEGE PARK*  CLOUDY    54  45  71 E3        30.20F
LEESBURG*      CLOUDY    57  50  77 SE6       30.20S
MANASSAS*      CLOUDY    57  48  72 S5        30.20S
GAITHERSBURG*  CLOUDY    57  46  67 SE7       30.23F

$$

MDZ006>007-011-014-302000-
BALTIMORE METRO

CITY           SKY/WX    TMP DP  RH WIND       PRES   REMARKS
BWI AIRPORT    CLOUDY    56  45  66 SE6       30.19F
MD SCIENCE CTR   N/A     59  45  59 MISG      30.21F
MARTIN STATE   PTSUNNY   61  50  67 S6        30.21F
ANNAPOLIS      CLOUDY    56  48  74 MISG      30.21S
FORT MEADE*    CLOUDY    55  45  67 CALM      30.22F

$$

MDZ012-015-019>023-302000-
MARYLAND EASTERN SHORE

CITY           SKY/WX    TMP DP  RH WIND       PRES   REMARKS
OCEAN CITY     SUNNY     54  46  74 NE13      30.21F
SALISBURY      CLOUDY    58  46  64 E8        30.20S
CAMBRIDGE*     PTSUNNY   55  46  71 NE5       30.20S
EASTON*        CLOUDY   N/A N/A N/A S3        30.24S

$$

MDZ017>025-302000-
SOUTHERN MARYLAND

CITY           SKY/WX    TMP DP  RH WIND       PRES   REMARKS
PATUXENT RIVER CLOUDY    56  47  71 VRB7      30.20F
ST INIGOES       N/A    N/A N/A N/A MISG        N/A
LEONARDTOWN*   CLOUDY    55  46  71 E7        30.21F

$$

MDZ003>005-302000-
NORTH CENTRAL MARYLAND

CITY           SKY/WX    TMP DP  RH WIND       PRES   REMARKS
FREDERICK*     CLOUDY    55  50  82 CALM      30.22F
HAGERSTOWN APT CLOUDY    55  45  68 E7        30.17F
WESTMINSTER*   CLOUDY    55  54  94 SE5       30.18F

$$

MDZ501>502-302000-
WESTERN MARYLAND

CITY           SKY/WX    TMP DP  RH WIND       PRES   REMARKS
OAKLAND*       FOG       46  45  93 SE17G23   30.11R VSB 1
CUMBERLAND*    PTSUNNY   55  50  82 E6        30.18S

$$

VAZ025>031-302000-
SHENANDOAH VALLEY

CITY           SKY/WX    TMP DP  RH WIND       PRES   REMARKS
WINCHESTER*    CLOUDY    55  50  82 SE8       30.17S
FRONT ROYAL*   CLOUDY    55  50  82 CALM      30.15S
LURAY*         CLOUDY    57  54  88 W6        30.16R
NEW MARKET*    CLOUDY    56  51  84 CALM      30.15R
STAUNTON*      CLOUDY    59  53  80 S8        30.18S
WAYNESBORO*    CLOUDY    54  50  86 MISG      30.16S

$$

WVZ021-048>050-054>055-302000-
EASTERN WEST VIRGINIA PANHANDLE

CITY           SKY/WX    TMP DP  RH WIND       PRES   REMARKS
MARTINSBURG    CLOUDY    53  48  83 SE7       30.17F
PETERSBURG*    CLOUDY    62  53  73 CALM      30.12F

$$

VAZ036>039-050-302000-
CENTRAL FOOTHILLS

CITY           SKY/WX    TMP DP  RH WIND       PRES   REMARKS
CHARLOTTESVILL CLOUDY    58  50  75 CALM      30.17F
CULPEPER*      CLOUDY    59  51  76 SE3       30.19F
ORANGE*        CLOUDY    59  52  77 CALM      30.20S
GORDONSVILLE*  CLOUDY    58  51  79 E3        30.17F
WARRENTON*     CLOUDY    58  46  65 SE8       30.19S

$$

VAZ055>057-302000-
NORTH AND CENTRAL PIEDMONT

CITY           SKY/WX    TMP DP  RH WIND       PRES   REMARKS
FREDERICKSBRG* CLOUDY    58  51  77 NE5       30.19S
STAFFORD*      CLOUDY    57  48  73 SE5       30.24R

$$

NCZ024-NYZ072-PAZ021-071-VAZ022-071-302000-
OTHER REGIONAL OBSERVATIONS

CITY           SKY/WX    TMP DP  RH WIND       PRES   REMARKS
NEW YORK CITY  SUNNY     62  33  33 W7        30.23R
PHILADELPHIA   PTSUNNY   62  41  46 E5        30.21F
PITTSBURGH     CLOUDY    66  45  46 SW6       30.07R
ROANOKE        DRIZZLE   56  54  93 SE10      30.17F
RICHMOND       CLOUDY    59  50  72 E7        30.18F
RALEIGH        CLOUDY    64  56  75 E8        30.14S

$$

ANZ530>537-302000-
MARINE OBSERVATIONS

STATION/POSITION TIME  TEMP    WIND        PRES
                       AIR SEA DIR/SP/G
                 (UTC) (F)     (DEG/KT/KT) (MB)
THOMAS PT LIGHT  1900   54 58  210/  3/  3 1024.2F
BALT KEY BRIDGE  1800   54     150/  9/ 10 1023.0R
COVE POINT       1800   54      CALM  /  2 1023.5S
LEWISETTA        1800   54 60   90/  6/  7 1022.7R
SOLOMONS ISLAND  1800   55 60   90/  4/  6   N/A
PINEY POINT      1800          140/  6/  9   N/A

$$





USA.gov is the U.S. government's official web portal to all federal, state and local government web resources and services.